Terminal Aerodrome Forecast
Issued by NWS South Bend, IN

Home | Current Version | Previous Version | Text Only | Print | Product List | Glossary Off
Versions: 1 2 3 4 5 6 7 8 9 10 11 12 13

000
FTUS43 KIWX 302300
TAFSBN
TAF
KSBN 302327Z 0100/0124 33010KT P6SM BKN080
     FM010400 33004KT P6SM SCT080
     FM011500 32008KT P6SM SKC=

USA.gov is the U.S. government's official web portal to all federal, state and local government web resources and services.